Content
SEND FEEDBACK

Daily
Averages
Monthly
Summary
Cyprus

KITI, CYPRUS


Home > Europe > Cyprus
Elevation: 7 feet     Latitude: 34 52N     Longitude: 033 37E

WEATHER
 
SELECT A DAY
Number of Records: 309,082;   Date Range: 7/1/96 - 8/10/14
 
SHARE

PRINT THIS DATA

[ ← Previous Day ]
WEATHER ALMANAC - JANUARY 23, 2013
[ Next Day → ]
[ °C ]   °F
Weather ElementAverageHighLow
Temperature56.4 °F66.2 °F (10:30 am)46.4 °F (6:00 am)
Dewpoint50.2 °F55.4 °F (12:00 pm)44.6 °F (6:00 am)
Humidity80.3 %100 % (12:30 am)59 % (9:30 am)
Barometer30.04 in30.09 in (7:00 pm)29.98 in (12:30 am)
Wind Speed8.1 mph20.7 mph (1:30 pm)
Weather ElementAverage
Visibility5.8 mi
Wind DirectionWSW (247.6 °)

Weather ElementTotal
Precipitation---
Heating Degree Days8.7 (Base 65)
Growing Degree Days6.3 (Base 50)
Averaged from 51 records on January 23, 2013
WEATHER CONDITIONS BREAKOUT
WIND DIRECTION BREAKOUT
WEATHER BY HOUR - JANUARY 23, 2013
[ °C ]   °F
Local TimeTemperatureDewpointHumidityBarometerVisibilityWind DirectionWind SpeedGust SpeedPrecipitationEventsConditions
12:30 AM50.0 °F50.0 °F100 %29.98 in3.7 miWest (270°)3.5 mph
1:00 AM50.0 °F48.2 °F94 %29.98 in3.7 miNW (320°)3.5 mph
1:30 AM50.0 °F50.0 °F100 %29.98 in3.7 miNW (320°)3.5 mph
2:00 AM50.0 °F49.0 °F95 %30.00 in4.0 miWNW (290°)5.8 mphMist
2:00 AM50.0 °F48.2 °F94 %29.98 in3.7 miWNW (290°)5.8 mph
2:30 AM50.0 °F48.2 °F94 %29.98 in3.7 miWNW (290°)4.6 mph
3:00 AM48.2 °F48.2 °F100 %29.98 in3.7 miWNW (300°)5.8 mph
3:30 AM48.2 °F46.4 °F93 %29.98 in3.7 miNNW (340°)5.8 mph
4:00 AM48.2 °F46.4 °F93 %29.98 in3.7 miNW (310°)4.6 mph
4:30 AM48.2 °F46.4 °F93 %30.01 in3.7 miWNW (300°)3.5 mph
5:00 AM48.2 °F46.4 °F93 %30.01 in3.7 miWNW (290°)2.3 mph
5:30 AM48.2 °F46.4 °F93 %30.01 in3.7 miNW (320°)3.5 mph
6:00 AM46.4 °F44.6 °F93 %30.01 in5.0 miNW (310°)4.6 mphPartly Cloudy
6:30 AM46.4 °F44.6 °F93 %30.01 in5.0 miNW (320°)3.5 mphPartly Cloudy
7:00 AM48.2 °F46.4 °F93 %30.04 in6.2 miWest (270°)4.6 mphPartly Cloudy
7:30 AM48.2 °F46.4 °F93 %30.04 in6.2 miWest (280°)4.6 mphPartly Cloudy
8:00 AM52.0 °F47.0 °F78 %30.05 in6.0 miWest (270°)3.5 mphScattered Clouds
8:00 AM51.8 °F46.4 °F82 %30.04 in6.2 miWest (270°)3.5 mphPartly Cloudy
8:30 AM55.4 °F48.2 °F77 %30.06 in6.2 miCalmPartly Cloudy
9:00 AM60.8 °F51.8 °F72 %30.06 in6.2 miVariable1.2 mphPartly Cloudy
9:30 AM62.6 °F48.2 °F59 %30.06 in6.2 miSSW (200°)6.9 mphPartly Cloudy
10:00 AM64.4 °F50.0 °F59 %30.06 in6.2 miSW (220°)6.9 mphPartly Cloudy
10:30 AM66.2 °F51.8 °F60 %30.06 in6.2 miSW (230°)9.2 mphPartly Cloudy
11:00 AM66.2 °F53.6 °F64 %30.06 in6.2 miWest (260°)5.8 mphPartly Cloudy
11:30 AM66.2 °F53.6 °F64 %30.04 in6.2 miSSW (210°)15.0 mphPartly Cloudy
12:00 PM66.2 °F55.4 °F68 %30.04 in6.2 miSW (220°)18.4 mphPartly Cloudy
12:30 PM64.4 °F53.6 °F68 %30.04 in6.2 miSW (230°)19.6 mphScattered Clouds
1:00 PM64.4 °F53.6 °F68 %30.01 in6.2 miSW (220°)18.4 mphMostly Cloudy
1:30 PM64.4 °F51.8 °F64 %30.04 in6.2 miSW (230°)20.7 mphRainLight Rain Showers
2:00 PM66.0 °F55.0 °F59 %30.05 in12.0 miSW (220°)18.4 mphRainLight Rain Showers
2:00 PM66.2 °F55.4 °F68 %30.04 in6.2 miSW (220°)18.4 mphMostly Cloudy
2:30 PM66.2 °F55.4 °F68 %30.04 in6.2 miSW (220°)19.6 mphScattered Clouds
3:00 PM64.4 °F53.6 °F68 %30.04 in6.2 miSW (220°)16.1 mphPartly Cloudy
3:30 PM64.4 °F51.8 °F64 %30.04 in6.2 miSW (220°)17.3 mphPartly Cloudy
4:00 PM62.6 °F53.6 °F72 %30.04 in6.2 miSW (220°)16.1 mphPartly Cloudy
4:30 PM62.6 °F53.6 °F72 %30.04 in6.2 miSW (230°)15.0 mphPartly Cloudy
5:00 PM60.8 °F53.6 °F77 %30.06 in6.2 miSW (230°)12.7 mphPartly Cloudy
5:30 PM60.8 °F53.6 °F77 %30.06 in6.2 miWest (260°)10.4 mphPartly Cloudy
6:00 PM59.0 °F53.6 °F82 %30.06 in6.2 miWSW (250°)8.1 mphPartly Cloudy
6:30 PM59.0 °F53.6 °F82 %30.06 in6.2 miWSW (250°)8.1 mphPartly Cloudy
7:00 PM59.0 °F51.8 °F77 %30.09 in6.2 miWSW (240°)9.2 mphPartly Cloudy
7:30 PM57.2 °F50.0 °F77 %30.06 in6.2 miWest (260°)6.9 mphPartly Cloudy
8:00 PM56.0 °F50.0 °F75 %30.09 in12.0 miWest (270°)3.5 mphScattered Clouds
8:00 PM55.4 °F50.0 °F82 %30.06 in6.2 miWest (270°)3.5 mphPartly Cloudy
8:30 PM55.4 °F50.0 °F82 %30.09 in6.2 miVariable1.2 mphPartly Cloudy
9:00 PM55.4 °F50.0 °F82 %30.09 in6.2 miSW (230°)5.8 mphPartly Cloudy
9:30 PM55.4 °F50.0 °F82 %30.09 in6.2 miSW (230°)8.1 mphPartly Cloudy
10:00 PM53.6 °F50.0 °F88 %30.09 in6.2 miNNW (330°)6.9 mphPartly Cloudy
10:30 PM51.8 °F48.2 °F88 %30.09 in6.2 miWest (270°)2.3 mphPartly Cloudy
11:00 PM51.8 °F48.2 °F88 %30.09 in6.2 miNW (310°)4.6 mphScattered Clouds
11:30 PM51.8 °F48.2 °F88 %30.09 in6.2 miWNW (300°)4.6 mphScattered Clouds
Hourly data recorded from LCLK, located miles away from Kiti, Cyprus







STORIES FROM OUR PARTNERS